Home   Weather   Montego Bay   Past weeks

Flag for Jamaica Past Weather in Montego Bay, Jamaica — Yesterday and Last 2 Weeks

Now
82 °F

Passing clouds.


Feels Like: 89 °F
Forecast: 76 / 87 °F
Wind: 12 mph from East

Location: Montego Bay / Sangster

Current Time: Dec 4, 2016 at 11:20:04 am

Latest Report: Dec 4, 2016 at 10:00 am


Visibility: N/A

Pressure: 29.95 "Hg

Humidity: 79%

Dew Point: 75 °F

Location of Montego BayLocation

Past Weather in Montego Bay — Graph

°F

Montego Bay Temperature Yesterday

Maximum temperature yesterday: 86 °F (at 12:00 pm)
Minimum temperature yesterday: 77 °F (at 12:00 am)
Average temperature yesterday: 80 °F

High & Low Weather Summary for the Past Weeks

 TemperatureHumidityPressure
High88 °F (Dec 1, 1:00 pm)100% (Nov 24, 4:00 am)29.98 "Hg (Nov 24, 4:00 am)
Low73 °F (Nov 29, 5:00 am)51% (Nov 21, 12:00 pm)29.80 "Hg (Nov 27, 3:00 pm)
Average80 °F74%29.89 "Hg
* Reported Nov 19 10:00 am — Dec 4 10:00 am, Montego Bay, Weather by CustomWeather, © 2016

Note: Actual official high and low records may vary slightly from our data, if they occured in-between our weather recording intervals... More about our weather records

Advertising

Montego Bay Weather History for the Previous 24 Hours

Scroll right to see more
 ConditionsComfort  
Time TempWeatherWind HumidityBarometerVisibility
10:00 am
Sun, Dec 4
82 °FPassing clouds.12 mph79%29.95 "HgN/A
9:00 am82 °FPassing clouds.9 mph74%29.95 "HgN/A
8:00 am81 °FPassing clouds.8 mph84%29.95 "HgN/A
7:00 am77 °FScattered clouds.1 mph94%29.92 "HgN/A
6:00 am77 °FPassing clouds.2 mph89%29.89 "HgN/A
5:00 am79 °FPassing clouds.2 mph79%29.89 "HgN/A
4:00 am77 °FThundershowers. Passing clouds.3 mph94%29.86 "HgN/A
3:00 am77 °FPassing clouds.2 mph89%29.86 "HgN/A
2:00 am77 °FPassing clouds.1 mph83%29.89 "HgN/A
1:00 am79 °FPassing clouds.5 mph79%29.89 "HgN/A
12:00 am81 °FPassing clouds.5 mph79%29.89 "HgN/A
11:00 pm
Sat, Dec 3
81 °FPassing clouds.8 mph79%29.92 "HgN/A
10:00 pm79 °FPassing clouds.2 mph79%29.92 "HgN/A
9:00 pm79 °FPassing clouds.3 mph79%29.92 "HgN/A
8:00 pm79 °FPassing clouds.5 mph84%29.92 "HgN/A
7:00 pm81 °FPassing clouds.5 mph89%29.89 "HgN/A
6:00 pm81 °FPassing clouds.1 mph84%29.89 "HgN/A
5:00 pm81 °FPartly sunny.5 mph84%29.86 "HgN/A
4:00 pm82 °FScattered clouds.10 mph74%29.86 "HgN/A
3:00 pm81 °FBroken clouds.6 mph79%29.86 "HgN/A
2:00 pm81 °FBroken clouds.10 mph84%29.89 "HgN/A
1:00 pm82 °FSprinkles. Broken clouds.13 mph79%29.92 "HgN/A
12:00 pm86 °FScattered clouds.12 mph66%29.92 "HgN/A
11:00 am84 °FScattered clouds.14 mph70%29.95 "HgN/A
Weather by CustomWeather, © 2016

See weather overviewHow to use our weather pages